(67) Asia
ephemeris date magn radius delta ra dec elong phase
Today21 Jun 202613.92.696 AU2.961 AU10h21m+07°30'65.1°20.0°
Opposition1 Jul 202710.42.014 AU1.008 AU18h38m-11°19'168.2°5.9°
(67) Asia - 2026-06-21
astro.vanbuitenen.nl


 
-1 year
-1 month
-1 day
Now
+1 day
+1 month
+1 year

The interactive orbit chart above shows the body's path through the solar system and its position at the given date. Green and blue lines are shown perpendicular to the ecliptic plane: Green if the path is above the ecliptic plane, blue if it is below. (Left-click and drag to rotate the view; Right-click and drag to move the view; Use scroll wheel to zoom in our out.)

The orbital elements of Asia are:

            e (Eccentricity)                : 0.1861837
            a (Semimajor axis)              : 2.4211692
            i (Inclination)                 : 6.02637
            Ω (Longitude of ascending node) : 202.22448
            ω (Argument of perihelion)      : 107.67813
            M (Mean anomaly)                : 237.75902
            Epoch                           : 2026 Jun 09

            L (Longitude of perihelion)     : 129.99468
            B (Latitude of perihelion)      : 5.74081
            P (Orbital period in years)     : 3.77            
        

The light curve chart below shows the estimated development of the minor planet's magnitude.


The all-sky chart below shows the path of the minor planet over the same period as the light curve. The current position is marked yellow.





The following chart shows the path of the minor planet in the next few days. The field of view is optimized for (~10x50) binoculars and finderscopes.




Ephemerides:
Date       Time       RA (2000)    DEC (2000)    delta   radius  elong  phase   PA    magn
2026-06-21 00:00 UT   10 21 18.4   +07 30 14     2.961    2.696   65.1   20.0   112   13.9 
2026-06-21 01:13 UT   10 21 22.0   +07 29 59     2.961    2.696   65.1   20.0   112   13.9 
2026-06-22 00:00 UT   10 22 29.7   +07 25 10     2.971    2.694   64.5   19.9   112   13.9 
2026-06-23 00:00 UT   10 23 41.6   +07 20 01     2.982    2.693   63.8   19.8   113   13.9 
2026-06-24 00:00 UT   10 24 53.9   +07 14 47     2.993    2.692   63.2   19.7   113   13.9 
2026-06-25 00:00 UT   10 26 06.8   +07 09 28     3.003    2.690   62.5   19.6   113   13.9 
2026-06-26 00:00 UT   10 27 20.1   +07 04 05     3.013    2.689   61.9   19.5   113   13.9 
2026-06-27 00:00 UT   10 28 34.0   +06 58 36     3.023    2.687   61.3   19.4   113   13.9 
2026-06-28 00:00 UT   10 29 48.2   +06 53 03     3.034    2.686   60.6   19.3   113   13.9 
2026-06-29 00:00 UT   10 31 03.0   +06 47 25     3.044    2.684   60.0   19.1   113   13.9 
2026-06-30 00:00 UT   10 32 18.2   +06 41 42     3.054    2.683   59.4   19.0   113   13.9 
2026-07-01 00:00 UT   10 33 33.8   +06 35 55     3.064    2.681   58.8   18.9   113   13.9 
2026-07-02 00:00 UT   10 34 49.9   +06 30 04     3.073    2.680   58.1   18.8   113   13.9 
2026-07-03 00:00 UT   10 36 06.4   +06 24 08     3.083    2.678   57.5   18.7   113   13.9 
2026-07-04 00:00 UT   10 37 23.4   +06 18 07     3.093    2.676   56.9   18.6   113   13.9 
2026-07-05 00:00 UT   10 38 40.7   +06 12 02     3.102    2.675   56.3   18.4   113   13.9 
2026-07-06 00:00 UT   10 39 58.5   +06 05 52     3.112    2.673   55.7   18.3   113   13.9 
2026-07-07 00:00 UT   10 41 16.7   +05 59 38     3.121    2.672   55.0   18.2   114   13.9 
2026-07-08 00:00 UT   10 42 35.3   +05 53 20     3.130    2.670   54.4   18.0   114   13.9 
2026-07-09 00:00 UT   10 43 54.3   +05 46 58     3.140    2.669   53.8   17.9   114   13.9 
2026-07-10 00:00 UT   10 45 13.7   +05 40 31     3.149    2.667   53.2   17.8   114   13.9 
2026-07-11 00:00 UT   10 46 33.5   +05 34 00     3.158    2.666   52.6   17.6   114   13.9 
2026-07-12 00:00 UT   10 47 53.6   +05 27 25     3.167    2.664   52.0   17.5   114   13.9 
2026-07-13 00:00 UT   10 49 14.2   +05 20 46     3.175    2.662   51.4   17.4   114   13.9 
2026-07-14 00:00 UT   10 50 35.1   +05 14 03     3.184    2.661   50.8   17.2   114   13.9 
2026-07-15 00:00 UT   10 51 56.4   +05 07 16     3.193    2.659   50.2   17.1   114   13.9 
2026-07-16 00:00 UT   10 53 18.0   +05 00 25     3.201    2.658   49.6   16.9   114   13.9 


    Terminology:
            
    delta:  distance between minor planet and earth in AU
    radius: distance between minor planet and sun in AU
    magn:   magnitude (brightness) estimate    
    ra:     right ascension in hours (24h = 360deg)
    dec:    declination in degrees
    elong:  elongation in degrees (angle sun-earth-minor planet)    
    phase:  phase angle in degrees (angle sun-minor planet-earth)        
    AU:     Astronomical Unit (mean distance between earth and sun: 149597870.7 km
    

Orbital elements provided by the MPC (Minor Planet Center).
Calculations by a modified version of AAPlus, a C# implementation of the AA+ project by PJ Naughter from the algorithms presented in the book "Astronomical Algorithms" by Jean Meeus.
NGC2000 dso catalog and star labels from VizieR as provided by the Strasbourg astronomical Data Center.
Tycho2 catalog from the ESO archive.